Time,TemperatureF,DewpointF,PressureIn,WindDirection,WindDirectionDegrees,WindSpeedMPH,WindSpeedGustMPH,Humidity,HourlyPrecipIn,Conditions,Clouds,dailyrainin,SoftwareType,DateUTC
2013-09-21 00:02:00,66.8,52.9,29.93,ESE,122,0.0,2.0,61,0.00,,,0.00,WeatherTracker,2013-09-21 06:02:00,
2013-09-21 00:07:00,67.1,52.7,29.93,ESE,122,0.0,2.0,60,0.00,,,0.00,WeatherTracker,2013-09-21 06:07:00,
2013-09-21 00:12:00,67.5,53.1,29.93,ESE,122,0.0,2.0,60,0.00,,,0.00,WeatherTracker,2013-09-21 06:12:00,
2013-09-21 00:17:00,67.6,52.8,29.93,ESE,122,0.0,1.0,59,0.00,,,0.00,WeatherTracker,2013-09-21 06:17:00,
2013-09-21 00:22:00,67.1,53.2,29.93,ESE,122,0.0,1.0,61,0.00,,,0.00,WeatherTracker,2013-09-21 06:22:00,
2013-09-21 00:27:00,66.2,53.2,29.93,ESE,122,0.0,1.0,63,0.00,,,0.00,WeatherTracker,2013-09-21 06:27:00,
2013-09-21 00:33:00,65.6,53.1,29.93,ESE,122,0.0,0.0,64,0.00,,,0.00,WeatherTracker,2013-09-21 06:33:00,
2013-09-21 00:38:00,65.3,53.2,29.93,ESE,122,0.0,0.0,65,0.00,,,0.00,WeatherTracker,2013-09-21 06:38:00,
2013-09-21 00:43:00,64.9,53.3,29.93,ESE,122,0.0,0.0,66,0.00,,,0.00,WeatherTracker,2013-09-21 06:43:00,
2013-09-21 00:48:00,64.9,53.7,29.93,ESE,122,0.0,0.0,67,0.00,,,0.00,WeatherTracker,2013-09-21 06:48:00,
2013-09-21 00:53:00,64.9,53.7,29.93,ESE,122,0.0,1.0,67,0.00,,,0.00,WeatherTracker,2013-09-21 06:53:00,
2013-09-21 00:58:00,64.9,54.1,29.93,ESE,122,0.0,1.0,68,0.00,,,0.00,WeatherTracker,2013-09-21 06:58:00,
2013-09-21 01:03:00,65.0,54.2,29.93,ESE,122,0.0,1.0,68,0.00,,,0.00,WeatherTracker,2013-09-21 07:03:00,
2013-09-21 01:08:00,65.0,54.2,29.93,ESE,122,0.0,1.0,68,0.00,,,0.00,WeatherTracker,2013-09-21 07:08:00,
2013-09-21 01:13:00,64.9,54.1,29.93,ESE,122,0.0,1.0,68,0.00,,,0.00,WeatherTracker,2013-09-21 07:13:00,
2013-09-21 01:18:00,64.9,54.1,29.93,ESE,122,0.0,1.0,68,0.00,,,0.00,WeatherTracker,2013-09-21 07:18:00,
2013-09-21 01:23:00,64.9,54.5,29.94,ESE,122,0.0,1.0,69,0.00,,,0.00,WeatherTracker,2013-09-21 07:23:00,
2013-09-21 01:28:00,64.6,54.2,29.94,SW,219,0.0,2.0,69,0.00,,,0.00,WeatherTracker,2013-09-21 07:28:00,
2013-09-21 01:33:00,64.4,54.4,29.93,SW,219,0.0,2.0,70,0.00,,,0.00,WeatherTracker,2013-09-21 07:33:00,
2013-09-21 01:38:00,64.1,54.5,29.93,SW,219,0.0,1.0,71,0.00,,,0.00,WeatherTracker,2013-09-21 07:38:00,
2013-09-21 01:43:00,63.7,54.5,29.93,SW,219,0.0,0.0,72,0.00,,,0.00,WeatherTracker,2013-09-21 07:43:00,
2013-09-21 01:48:00,63.3,54.1,29.93,SW,219,0.0,0.0,72,0.00,,,0.00,WeatherTracker,2013-09-21 07:48:00,
2013-09-21 01:53:00,63.2,54.4,29.93,SW,219,0.0,1.0,73,0.00,,,0.00,WeatherTracker,2013-09-21 07:53:00,
2013-09-21 01:59:00,62.9,54.1,29.93,SW,219,0.0,1.0,73,0.00,,,0.00,WeatherTracker,2013-09-21 07:59:00,
2013-09-21 02:04:00,62.7,54.3,29.93,SW,219,0.0,0.0,74,0.00,,,0.00,WeatherTracker,2013-09-21 08:04:00,
2013-09-21 02:09:00,62.6,54.2,29.94,SW,219,0.0,1.0,74,0.00,,,0.00,WeatherTracker,2013-09-21 08:09:00,
2013-09-21 02:14:00,62.3,54.3,29.94,SW,219,0.0,1.0,75,0.00,,,0.00,WeatherTracker,2013-09-21 08:14:00,
2013-09-21 02:19:00,62.3,54.3,29.94,SW,219,0.0,0.0,75,0.00,,,0.00,WeatherTracker,2013-09-21 08:19:00,
2013-09-21 02:24:00,62.1,54.1,29.93,SW,219,0.0,0.0,75,0.00,,,0.00,WeatherTracker,2013-09-21 08:24:00,
2013-09-21 02:29:00,61.8,54.2,29.93,SW,219,0.0,0.0,76,0.00,,,0.00,WeatherTracker,2013-09-21 08:29:00,
2013-09-21 02:34:00,61.8,54.2,29.93,SW,219,0.0,0.0,76,0.00,,,0.00,WeatherTracker,2013-09-21 08:34:00,
2013-09-21 02:39:00,62.0,54.3,29.93,SW,219,0.0,1.0,76,0.00,,,0.00,WeatherTracker,2013-09-21 08:39:00,
2013-09-21 02:44:00,61.9,54.2,29.93,SW,219,0.0,1.0,76,0.00,,,0.00,WeatherTracker,2013-09-21 08:44:00,
2013-09-21 02:49:00,61.8,54.2,29.92,SW,219,0.0,0.0,76,0.00,,,0.00,WeatherTracker,2013-09-21 08:49:00,
2013-09-21 02:54:00,61.8,54.2,29.93,SW,219,0.0,0.0,76,0.00,,,0.00,WeatherTracker,2013-09-21 08:54:00,
2013-09-21 02:59:00,61.6,54.3,29.92,SW,219,0.0,0.0,77,0.00,,,0.00,WeatherTracker,2013-09-21 08:59:00,
2013-09-21 03:04:00,61.6,54.3,29.93,SW,219,0.0,0.0,77,0.00,,,0.00,WeatherTracker,2013-09-21 09:04:00,
2013-09-21 03:09:00,61.5,54.2,29.93,SW,219,0.0,0.0,77,0.00,,,0.00,WeatherTracker,2013-09-21 09:09:00,
2013-09-21 03:14:00,61.4,54.1,29.93,SW,219,0.0,0.0,77,0.00,,,0.00,WeatherTracker,2013-09-21 09:14:00,
2013-09-21 03:19:00,61.2,54.3,29.93,SW,219,0.0,0.0,78,0.00,,,0.00,WeatherTracker,2013-09-21 09:19:00,
2013-09-21 03:24:00,60.9,54.3,29.93,SW,219,0.0,0.0,79,0.00,,,0.00,WeatherTracker,2013-09-21 09:24:00,
2013-09-21 03:29:00,60.8,54.2,29.93,SW,219,0.0,0.0,79,0.00,,,0.00,WeatherTracker,2013-09-21 09:29:00,
2013-09-21 03:34:00,60.8,54.2,29.93,SW,219,0.0,0.0,79,0.00,,,0.00,WeatherTracker,2013-09-21 09:34:00,
2013-09-21 03:39:00,61.0,54.4,29.93,SW,219,0.0,0.0,79,0.00,,,0.00,WeatherTracker,2013-09-21 09:39:00,
2013-09-21 03:44:00,60.8,54.2,29.93,SW,219,0.0,0.0,79,0.00,,,0.00,WeatherTracker,2013-09-21 09:44:00,
2013-09-21 03:49:00,60.7,54.5,29.93,SW,219,0.0,0.0,80,0.00,,,0.00,WeatherTracker,2013-09-21 09:49:00,
2013-09-21 03:54:00,60.6,54.4,29.93,SW,219,0.0,0.0,80,0.00,,,0.00,WeatherTracker,2013-09-21 09:54:00,
2013-09-21 03:59:00,60.6,54.4,29.93,SW,219,0.0,0.0,80,0.00,,,0.00,WeatherTracker,2013-09-21 09:59:00,
2013-09-21 04:05:00,60.4,54.2,29.93,SW,219,0.0,0.0,80,0.00,,,0.00,WeatherTracker,2013-09-21 10:05:00,
2013-09-21 04:10:00,60.4,54.2,29.93,SW,219,0.0,0.0,80,0.00,,,0.00,WeatherTracker,2013-09-21 10:10:00,
2013-09-21 04:15:00,60.3,54.1,29.93,SW,219,0.0,0.0,80,0.00,,,0.00,WeatherTracker,2013-09-21 10:15:00,
2013-09-21 04:20:00,60.3,54.1,29.93,SW,219,0.0,0.0,80,0.00,,,0.00,WeatherTracker,2013-09-21 10:20:00,
2013-09-21 04:25:00,60.1,54.2,29.93,SW,219,0.0,0.0,81,0.00,,,0.00,WeatherTracker,2013-09-21 10:25:00,
2013-09-21 04:30:00,60.1,54.2,29.93,SW,219,0.0,0.0,81,0.00,,,0.00,WeatherTracker,2013-09-21 10:30:00,
2013-09-21 04:35:00,60.0,54.1,29.93,SW,219,0.0,0.0,81,0.00,,,0.00,WeatherTracker,2013-09-21 10:35:00,
2013-09-21 04:40:00,59.9,54.4,29.93,SW,219,0.0,0.0,82,0.00,,,0.00,WeatherTracker,2013-09-21 10:40:00,
2013-09-21 04:45:00,60.1,54.2,29.93,SW,219,0.0,0.0,81,0.00,,,0.00,WeatherTracker,2013-09-21 10:45:00,
2013-09-21 04:50:00,59.9,54.4,29.93,SW,219,0.0,0.0,82,0.00,,,0.00,WeatherTracker,2013-09-21 10:50:00,
2013-09-21 04:55:00,60.1,54.6,29.93,SW,219,0.0,0.0,82,0.00,,,0.00,WeatherTracker,2013-09-21 10:55:00,
2013-09-21 05:00:00,59.8,54.0,29.93,SW,219,0.0,0.0,81,0.00,,,0.00,WeatherTracker,2013-09-21 11:00:00,
2013-09-21 05:05:00,59.8,54.3,29.94,SW,219,0.0,0.0,82,0.00,,,0.00,WeatherTracker,2013-09-21 11:05:00,
2013-09-21 05:10:00,59.8,54.3,29.94,SW,219,0.0,0.0,82,0.00,,,0.00,WeatherTracker,2013-09-21 11:10:00,
2013-09-21 05:15:00,59.6,54.1,29.94,SW,219,0.0,0.0,82,0.00,,,0.00,WeatherTracker,2013-09-21 11:15:00,
2013-09-21 05:20:00,59.4,54.2,29.94,SW,219,0.0,0.0,83,0.00,,,0.00,WeatherTracker,2013-09-21 11:20:00,
2013-09-21 05:25:00,59.5,54.3,29.94,SW,219,0.0,0.0,83,0.00,,,0.00,WeatherTracker,2013-09-21 11:25:00,
2013-09-21 05:31:00,59.3,54.1,29.94,SW,219,0.0,0.0,83,0.00,,,0.00,WeatherTracker,2013-09-21 11:31:00,
2013-09-21 05:36:00,59.3,54.5,29.94,SW,219,0.0,0.0,84,0.00,,,0.00,WeatherTracker,2013-09-21 11:36:00,
2013-09-21 05:41:00,59.4,54.6,29.94,SW,219,0.0,0.0,84,0.00,,,0.00,WeatherTracker,2013-09-21 11:41:00,
2013-09-21 05:46:00,59.3,54.5,29.94,SW,219,0.0,0.0,84,0.00,,,0.00,WeatherTracker,2013-09-21 11:46:00,
2013-09-21 05:51:00,59.1,54.3,29.94,SW,219,0.0,0.0,84,0.00,,,0.00,WeatherTracker,2013-09-21 11:51:00,
2013-09-21 05:56:00,58.9,54.1,29.94,SW,219,0.0,0.0,84,0.00,,,0.00,WeatherTracker,2013-09-21 11:56:00,
2013-09-21 06:01:00,58.6,54.1,29.94,SW,219,0.0,0.0,85,0.00,,,0.00,WeatherTracker,2013-09-21 12:01:00,
2013-09-21 06:06:00,58.7,54.2,29.94,SW,219,0.0,0.0,85,0.00,,,0.00,WeatherTracker,2013-09-21 12:06:00,
2013-09-21 06:11:00,58.6,54.1,29.94,SW,219,0.0,1.0,85,0.00,,,0.00,WeatherTracker,2013-09-21 12:11:00,
2013-09-21 06:16:00,58.7,54.2,29.94,SW,219,0.0,1.0,85,0.00,,,0.00,WeatherTracker,2013-09-21 12:16:00,
2013-09-21 06:21:00,58.6,54.1,29.94,SW,219,0.0,0.0,85,0.00,,,0.00,WeatherTracker,2013-09-21 12:21:00,
2013-09-21 06:26:00,58.6,54.1,29.94,SW,219,0.0,0.0,85,0.00,,,0.00,WeatherTracker,2013-09-21 12:26:00,
2013-09-21 06:31:00,58.6,54.1,29.94,SW,219,0.0,0.0,85,0.00,,,0.00,WeatherTracker,2013-09-21 12:31:00,
2013-09-21 06:36:00,58.6,54.1,29.95,SW,219,0.0,0.0,85,0.00,,,0.00,WeatherTracker,2013-09-21 12:36:00,
2013-09-21 06:41:00,58.5,54.0,29.95,SW,219,0.0,0.0,85,0.00,,,0.00,WeatherTracker,2013-09-21 12:41:00,
2013-09-21 06:46:00,58.6,54.1,29.95,SW,219,0.0,0.0,85,0.00,,,0.00,WeatherTracker,2013-09-21 12:46:00,
2013-09-21 06:51:00,58.5,54.0,29.95,SW,219,0.0,0.0,85,0.00,,,0.00,WeatherTracker,2013-09-21 12:51:00,
2013-09-21 06:56:00,58.4,53.9,29.95,SW,219,0.0,0.0,85,0.00,,,0.00,WeatherTracker,2013-09-21 12:56:00,
2013-09-21 07:01:00,58.2,54.0,29.95,SW,219,0.0,0.0,86,0.00,,,0.00,WeatherTracker,2013-09-21 13:01:00,
2013-09-21 07:06:00,58.0,53.8,29.95,SW,219,0.0,0.0,86,0.00,,,0.00,WeatherTracker,2013-09-21 13:06:00,
2013-09-21 07:11:00,58.1,53.9,29.95,SW,219,0.0,0.0,86,0.00,,,0.00,WeatherTracker,2013-09-21 13:11:00,
2013-09-21 07:17:00,58.2,54.3,29.95,SW,219,0.0,0.0,87,0.00,,,0.00,WeatherTracker,2013-09-21 13:17:00,
2013-09-21 07:22:00,58.5,54.3,29.96,SW,219,0.0,0.0,86,0.00,,,0.00,WeatherTracker,2013-09-21 13:22:00,
2013-09-21 07:27:00,58.9,54.7,29.96,SW,219,0.0,0.0,86,0.00,,,0.00,WeatherTracker,2013-09-21 13:27:00,
2013-09-21 07:32:00,59.5,55.0,29.96,SW,219,0.0,0.0,85,0.00,,,0.00,WeatherTracker,2013-09-21 13:32:00,
2013-09-21 07:37:00,60.2,55.0,29.96,SW,219,0.0,0.0,83,0.00,,,0.00,WeatherTracker,2013-09-21 13:37:00,
2013-09-21 07:42:00,60.8,55.3,29.96,SW,219,0.0,0.0,82,0.00,,,0.00,WeatherTracker,2013-09-21 13:42:00,
2013-09-21 07:47:00,61.4,55.5,29.96,SW,219,0.0,0.0,81,0.00,,,0.00,WeatherTracker,2013-09-21 13:47:00,
2013-09-21 07:52:00,61.8,55.2,29.96,SW,219,0.0,0.0,79,0.00,,,0.00,WeatherTracker,2013-09-21 13:52:00,
2013-09-21 07:57:00,62.5,55.5,29.96,SW,219,0.0,0.0,78,0.00,,,0.00,WeatherTracker,2013-09-21 13:57:00,
2013-09-21 08:02:00,63.0,55.7,29.96,SW,219,0.0,1.0,77,0.00,,,0.00,WeatherTracker,2013-09-21 14:02:00,
2013-09-21 08:07:00,63.4,55.7,29.96,SW,220,0.0,1.0,76,0.00,,,0.00,WeatherTracker,2013-09-21 14:07:00,
2013-09-21 08:12:00,63.8,55.7,29.96,WNW,290,0.0,2.0,75,0.00,,,0.00,WeatherTracker,2013-09-21 14:12:00,
2013-09-21 08:17:00,64.0,55.9,29.96,WNW,290,0.0,2.0,75,0.00,,,0.00,WeatherTracker,2013-09-21 14:17:00,
2013-09-21 08:22:00,64.0,55.9,29.96,WNW,290,0.0,1.0,75,0.00,,,0.00,WeatherTracker,2013-09-21 14:22:00,
2013-09-21 08:27:00,64.1,55.6,29.96,WNW,287,0.0,1.0,74,0.00,,,0.00,WeatherTracker,2013-09-21 14:27:00,
2013-09-21 08:32:00,64.9,56.0,29.96,WNW,287,0.0,1.0,73,0.00,,,0.00,WeatherTracker,2013-09-21 14:32:00,
2013-09-21 08:37:00,65.5,55.8,29.96,WNW,287,0.0,1.0,71,0.00,,,0.00,WeatherTracker,2013-09-21 14:37:00,
2013-09-21 08:42:00,66.4,56.7,29.96,WNW,287,0.0,1.0,71,0.00,,,0.00,WeatherTracker,2013-09-21 14:42:00,
2013-09-21 08:47:00,66.6,56.5,29.96,WNW,288,0.0,2.0,70,0.00,,,0.00,WeatherTracker,2013-09-21 14:47:00,
2013-09-21 08:52:00,67.1,56.2,29.96,WNW,288,1.0,2.0,68,0.00,,,0.00,WeatherTracker,2013-09-21 14:52:00,
2013-09-21 08:57:00,66.9,55.6,29.96,WNW,288,0.0,2.0,67,0.00,,,0.00,WeatherTracker,2013-09-21 14:57:00,
2013-09-21 09:03:00,67.5,56.1,29.96,WNW,288,0.0,2.0,67,0.00,,,0.00,WeatherTracker,2013-09-21 15:03:00,
2013-09-21 09:08:00,68.2,55.5,29.96,NNW,345,1.0,3.0,64,0.00,,,0.00,WeatherTracker,2013-09-21 15:08:00,
2013-09-21 09:13:00,67.9,55.3,29.96,ESE,111,1.0,4.0,64,0.00,,,0.00,WeatherTracker,2013-09-21 15:13:00,
2013-09-21 09:18:00,68.3,55.2,29.96,North,349,0.0,6.0,63,0.00,,,0.00,WeatherTracker,2013-09-21 15:18:00,
2013-09-21 09:23:00,68.6,55.5,29.97,ESE,107,1.0,6.0,63,0.00,,,0.00,WeatherTracker,2013-09-21 15:23:00,
2013-09-21 09:28:00,68.9,55.8,29.96,North,5,3.0,6.0,63,0.00,,,0.00,WeatherTracker,2013-09-21 15:28:00,
2013-09-21 09:33:00,69.2,55.2,29.97,NNE,13,2.0,7.0,61,0.00,,,0.00,WeatherTracker,2013-09-21 15:33:00,
2013-09-21 09:38:00,69.0,55.4,29.97,North,350,6.0,8.0,62,0.00,,,0.00,WeatherTracker,2013-09-21 15:38:00,
2013-09-21 09:43:00,69.5,56.3,29.97,East,99,2.0,8.0,63,0.00,,,0.00,WeatherTracker,2013-09-21 15:43:00,
2013-09-21 09:48:00,69.3,55.7,29.96,ENE,58,0.0,8.0,62,0.00,,,0.00,WeatherTracker,2013-09-21 15:48:00,
2013-09-21 09:53:00,69.7,56.5,29.96,ESE,116,0.0,5.0,63,0.00,,,0.00,WeatherTracker,2013-09-21 15:53:00,
2013-09-21 09:58:00,70.3,56.2,29.96,East,94,0.0,5.0,61,0.00,,,0.00,WeatherTracker,2013-09-21 15:58:00,
2013-09-21 10:03:00,70.4,56.3,29.96,ESE,104,0.0,5.0,61,0.00,,,0.00,WeatherTracker,2013-09-21 16:03:00,
2013-09-21 10:08:00,69.8,55.7,29.96,NNE,19,2.0,6.0,61,0.00,,,0.00,WeatherTracker,2013-09-21 16:08:00,
2013-09-21 10:13:00,70.1,56.0,29.96,ESE,104,1.0,6.0,61,0.00,,,0.00,WeatherTracker,2013-09-21 16:13:00,
2013-09-21 10:18:00,69.9,55.8,29.96,East,82,2.0,6.0,61,0.00,,,0.00,WeatherTracker,2013-09-21 16:18:00,
2013-09-21 10:23:00,70.3,56.2,29.96,SE,146,1.0,7.0,61,0.00,,,0.00,WeatherTracker,2013-09-21 16:23:00,
2013-09-21 10:28:00,70.9,56.3,29.96,East,96,5.0,7.0,60,0.00,,,0.00,WeatherTracker,2013-09-21 16:28:00,
2013-09-21 10:33:00,71.1,56.0,29.96,SE,136,5.0,8.0,59,0.00,,,0.00,WeatherTracker,2013-09-21 16:33:00,
2013-09-21 10:38:00,71.2,56.6,29.96,North,360,2.0,8.0,60,0.00,,,0.00,WeatherTracker,2013-09-21 16:38:00,
2013-09-21 10:43:00,71.9,56.3,29.96,ESE,109,3.0,8.0,58,0.00,,,0.00,WeatherTracker,2013-09-21 16:43:00,
2013-09-21 10:48:00,71.3,56.7,29.96,SE,144,5.0,8.0,60,0.00,,,0.00,WeatherTracker,2013-09-21 16:48:00,
2013-09-21 10:54:00,71.4,56.8,29.96,East,92,1.0,10.0,60,0.00,,,0.00,WeatherTracker,2013-09-21 16:54:00,
2013-09-21 10:59:00,72.2,57.5,29.96,ESE,123,4.0,10.0,60,0.00,,,0.00,WeatherTracker,2013-09-21 16:59:00,
2013-09-21 11:04:00,72.8,57.1,29.95,North,350,5.0,8.0,58,0.00,,,0.00,WeatherTracker,2013-09-21 17:04:00,
2013-09-21 11:09:00,73.1,57.4,29.95,East,98,5.0,8.0,58,0.00,,,0.00,WeatherTracker,2013-09-21 17:09:00,
2013-09-21 11:14:00,72.3,56.7,29.95,East,94,0.0,9.0,58,0.00,,,0.00,WeatherTracker,2013-09-21 17:14:00,
2013-09-21 11:19:00,73.1,57.9,29.95,NNE,17,3.0,9.0,59,0.00,,,0.00,WeatherTracker,2013-09-21 17:19:00,
2013-09-21 11:24:00,73.3,57.1,29.95,North,355,6.0,10.0,57,0.00,,,0.00,WeatherTracker,2013-09-21 17:24:00,
2013-09-21 11:29:00,73.7,57.5,29.94,ENE,67,2.0,10.0,57,0.00,,,0.00,WeatherTracker,2013-09-21 17:29:00,
2013-09-21 11:34:00,73.1,56.9,29.94,North,351,3.0,8.0,57,0.00,,,0.00,WeatherTracker,2013-09-21 17:34:00,
2013-09-21 11:39:00,74.0,56.8,29.94,East,88,5.0,8.0,55,0.00,,,0.00,WeatherTracker,2013-09-21 17:39:00,
2013-09-21 11:44:00,74.6,57.3,29.93,ESE,113,3.0,8.0,55,0.00,,,0.00,WeatherTracker,2013-09-21 17:44:00,
2013-09-21 11:49:00,74.2,56.5,29.93,ESE,112,4.0,8.0,54,0.00,,,0.00,WeatherTracker,2013-09-21 17:49:00,
2013-09-21 11:54:00,75.5,57.7,29.93,ENE,63,3.0,8.0,54,0.00,,,0.00,WeatherTracker,2013-09-21 17:54:00,
2013-09-21 11:59:00,75.2,56.3,29.93,North,9,4.0,7.0,52,0.00,,,0.00,WeatherTracker,2013-09-21 17:59:00,
2013-09-21 12:04:00,75.1,57.3,29.93,NNW,344,3.0,8.0,54,0.00,,,0.00,WeatherTracker,2013-09-21 18:04:00,
2013-09-21 12:09:00,75.7,57.9,29.93,NE,38,1.0,8.0,54,0.00,,,0.00,WeatherTracker,2013-09-21 18:09:00,
2013-09-21 12:14:00,76.2,57.3,29.92,East,95,2.0,5.0,52,0.00,,,0.00,WeatherTracker,2013-09-21 18:14:00,
2013-09-21 12:19:00,76.9,56.3,29.92,ESE,103,3.0,9.0,49,0.00,,,0.00,WeatherTracker,2013-09-21 18:19:00,
2013-09-21 12:24:00,76.2,56.2,29.92,WNW,298,6.0,9.0,50,0.00,,,0.00,WeatherTracker,2013-09-21 18:24:00,
2013-09-21 12:29:00,75.5,57.2,29.91,East,97,3.0,9.0,53,0.00,,,0.00,WeatherTracker,2013-09-21 18:29:00,
2013-09-21 12:34:00,77.1,58.1,29.91,ESE,109,8.0,8.0,52,0.00,,,0.00,WeatherTracker,2013-09-21 18:34:00,
2013-09-21 12:39:00,76.1,56.1,29.91,NE,49,1.0,8.0,50,0.00,,,0.00,WeatherTracker,2013-09-21 18:39:00,
2013-09-21 12:44:00,75.9,57.0,29.91,East,95,2.0,9.0,52,0.00,,,0.00,WeatherTracker,2013-09-21 18:44:00,
2013-09-21 12:49:00,76.0,56.5,29.91,ESE,123,2.0,9.0,51,0.00,,,0.00,WeatherTracker,2013-09-21 18:49:00,
2013-09-21 12:54:00,77.0,56.9,29.90,NNE,33,2.0,7.0,50,0.00,,,0.00,WeatherTracker,2013-09-21 18:54:00,
2013-09-21 13:00:00,78.0,56.7,29.90,East,98,1.0,8.0,48,0.00,,,0.00,WeatherTracker,2013-09-21 19:00:00,
2013-09-21 13:05:00,77.6,56.3,29.90,NE,34,0.0,7.0,48,0.00,,,0.00,WeatherTracker,2013-09-21 19:05:00,
2013-09-21 13:10:00,77.7,57.0,29.90,NNW,348,3.0,9.0,49,0.00,,,0.00,WeatherTracker,2013-09-21 19:10:00,
2013-09-21 13:15:00,78.2,56.9,29.90,SE,145,3.0,9.0,48,0.00,,,0.00,WeatherTracker,2013-09-21 19:15:00,
2013-09-21 13:20:00,78.6,56.1,29.89,SSE,147,3.0,9.0,46,0.00,,,0.00,WeatherTracker,2013-09-21 19:20:00,
2013-09-21 13:25:00,78.7,56.8,29.89,SE,138,3.0,7.0,47,0.00,,,0.00,WeatherTracker,2013-09-21 19:25:00,
2013-09-21 13:30:00,78.2,56.9,29.89,South,173,1.0,7.0,48,0.00,,,0.00,WeatherTracker,2013-09-21 19:30:00,
2013-09-21 13:35:00,78.2,56.3,29.88,ESE,117,2.0,7.0,47,0.00,,,0.00,WeatherTracker,2013-09-21 19:35:00,
2013-09-21 13:40:00,78.8,56.2,29.88,NNW,347,2.0,7.0,46,0.00,,,0.00,WeatherTracker,2013-09-21 19:40:00,
2013-09-21 13:45:00,78.7,56.2,29.88,ESE,112,2.0,7.0,46,0.00,,,0.00,WeatherTracker,2013-09-21 19:45:00,
2013-09-21 13:50:00,80.5,57.8,29.87,ENE,65,2.0,9.0,46,0.00,,,0.00,WeatherTracker,2013-09-21 19:50:00,
2013-09-21 13:55:00,79.1,56.5,29.87,SE,132,3.0,9.0,46,0.00,,,0.00,WeatherTracker,2013-09-21 19:55:00,
2013-09-21 14:00:00,79.0,53.9,29.87,North,350,3.0,9.0,42,0.00,,,0.00,WeatherTracker,2013-09-21 20:00:00,
2013-09-21 14:05:00,79.3,56.1,29.87,East,87,2.0,9.0,45,0.00,,,0.00,WeatherTracker,2013-09-21 20:05:00,
2013-09-21 14:10:00,80.3,55.1,29.87,NNE,28,1.0,8.0,42,0.00,,,0.00,WeatherTracker,2013-09-21 20:10:00,
2013-09-21 14:15:00,79.9,56.0,29.86,ESE,102,7.0,8.0,44,0.00,,,0.00,WeatherTracker,2013-09-21 20:15:00,
2013-09-21 14:21:00,79.7,53.9,29.86,NE,54,2.0,8.0,41,0.00,,,0.00,WeatherTracker,2013-09-21 20:21:00,
2013-09-21 14:26:00,80.0,54.8,29.86,East,85,10.0,10.0,42,0.00,,,0.00,WeatherTracker,2013-09-21 20:26:00,
2013-09-21 14:31:00,80.0,53.5,29.85,East,89,8.0,10.0,40,0.00,,,0.00,WeatherTracker,2013-09-21 20:31:00,
2013-09-21 14:36:00,80.2,53.7,29.85,East,92,2.0,10.0,40,0.00,,,0.00,WeatherTracker,2013-09-21 20:36:00,
2013-09-21 14:41:00,80.1,55.6,29.85,East,84,1.0,10.0,43,0.00,,,0.00,WeatherTracker,2013-09-21 20:41:00,
2013-09-21 14:46:00,81.1,54.5,29.85,East,92,2.0,10.0,40,0.00,,,0.00,WeatherTracker,2013-09-21 20:46:00,
2013-09-21 14:51:00,80.6,54.7,29.84,NE,44,5.0,10.0,41,0.00,,,0.00,WeatherTracker,2013-09-21 20:51:00,
2013-09-21 14:56:00,80.9,53.6,29.84,ENE,63,3.0,9.0,39,0.00,,,0.00,WeatherTracker,2013-09-21 20:56:00,
2013-09-21 15:01:00,81.4,55.4,29.84,ENE,78,2.0,9.0,41,0.00,,,0.00,WeatherTracker,2013-09-21 21:01:00,
2013-09-21 15:06:00,80.3,55.1,29.84,ENE,75,2.0,7.0,42,0.00,,,0.00,WeatherTracker,2013-09-21 21:06:00,
2013-09-21 15:11:00,81.8,54.4,29.83,ENE,74,3.0,9.0,39,0.00,,,0.00,WeatherTracker,2013-09-21 21:11:00,
2013-09-21 15:16:00,81.6,53.5,29.83,South,180,2.0,9.0,38,0.00,,,0.00,WeatherTracker,2013-09-21 21:16:00,
2013-09-21 15:21:00,81.6,53.5,29.83,ESE,118,3.0,8.0,38,0.00,,,0.00,WeatherTracker,2013-09-21 21:21:00,
2013-09-21 15:26:00,81.3,55.3,29.83,North,10,1.0,10.0,41,0.00,,,0.00,WeatherTracker,2013-09-21 21:26:00,
2013-09-21 15:31:00,81.5,54.8,29.82,ENE,60,5.0,10.0,40,0.00,,,0.00,WeatherTracker,2013-09-21 21:31:00,
2013-09-21 15:36:00,81.5,52.7,29.82,SE,140,2.0,8.0,37,0.00,,,0.00,WeatherTracker,2013-09-21 21:36:00,
2013-09-21 15:41:00,81.6,53.5,29.82,SSE,165,6.0,8.0,38,0.00,,,0.00,WeatherTracker,2013-09-21 21:41:00,
2013-09-21 15:46:00,81.9,53.0,29.82,East,100,3.0,7.0,37,0.00,,,0.00,WeatherTracker,2013-09-21 21:46:00,
2013-09-21 15:51:00,81.7,52.1,29.81,ESE,109,4.0,7.0,36,0.00,,,0.00,WeatherTracker,2013-09-21 21:51:00,
2013-09-21 15:56:00,81.4,51.9,29.81,SE,131,5.0,7.0,36,0.00,,,0.00,WeatherTracker,2013-09-21 21:56:00,
2013-09-21 16:02:00,80.9,52.2,29.81,ENE,74,4.0,7.0,37,0.00,,,0.00,WeatherTracker,2013-09-21 22:02:00,
2013-09-21 16:07:00,81.2,52.4,29.80,SE,142,2.0,10.0,37,0.00,,,0.00,WeatherTracker,2013-09-21 22:07:00,
2013-09-21 16:12:00,81.5,51.9,29.80,SE,131,3.0,10.0,36,0.00,,,0.00,WeatherTracker,2013-09-21 22:12:00,
2013-09-21 16:17:00,81.2,52.4,29.80,East,99,2.0,8.0,37,0.00,,,0.00,WeatherTracker,2013-09-21 22:17:00,
2013-09-21 16:22:00,81.4,52.6,29.80,ENE,76,4.0,8.0,37,0.00,,,0.00,WeatherTracker,2013-09-21 22:22:00,
2013-09-21 16:27:00,81.7,53.6,29.80,East,101,6.0,8.0,38,0.00,,,0.00,WeatherTracker,2013-09-21 22:27:00,
2013-09-21 16:32:00,81.7,53.6,29.79,NE,51,6.0,11.0,38,0.00,,,0.00,WeatherTracker,2013-09-21 22:32:00,
2013-09-21 16:37:00,81.6,52.8,29.79,ESE,109,2.0,11.0,37,0.00,,,0.00,WeatherTracker,2013-09-21 22:37:00,
2013-09-21 16:42:00,81.8,53.0,29.79,ESE,120,4.0,9.0,37,0.00,,,0.00,WeatherTracker,2013-09-21 22:42:00,
2013-09-21 16:47:00,81.4,52.6,29.79,ESE,113,1.0,9.0,37,0.00,,,0.00,WeatherTracker,2013-09-21 22:47:00,
2013-09-21 16:52:00,81.4,52.6,29.79,East,80,3.0,7.0,37,0.00,,,0.00,WeatherTracker,2013-09-21 22:52:00,
2013-09-21 16:57:00,81.1,53.1,29.79,NNE,20,3.0,8.0,38,0.00,,,0.00,WeatherTracker,2013-09-21 22:57:00,
2013-09-21 17:02:00,81.1,53.1,29.79,SE,131,2.0,8.0,38,0.00,,,0.00,WeatherTracker,2013-09-21 23:02:00,
2013-09-21 17:07:00,80.6,52.6,29.79,ESE,120,2.0,8.0,38,0.00,,,0.00,WeatherTracker,2013-09-21 23:07:00,
2013-09-21 17:12:00,80.8,52.8,29.79,East,94,3.0,8.0,38,0.00,,,0.00,WeatherTracker,2013-09-21 23:12:00,
2013-09-21 17:17:00,80.6,53.3,29.78,East,80,6.0,8.0,39,0.00,,,0.00,WeatherTracker,2013-09-21 23:17:00,
2013-09-21 17:22:00,80.9,53.6,29.78,NE,56,3.0,8.0,39,0.00,,,0.00,WeatherTracker,2013-09-21 23:22:00,
2013-09-21 17:27:00,80.7,53.4,29.78,SSE,161,2.0,11.0,39,0.00,,,0.00,WeatherTracker,2013-09-21 23:27:00,
2013-09-21 17:32:00,80.6,53.3,29.78,East,83,3.0,11.0,39,0.00,,,0.00,WeatherTracker,2013-09-21 23:32:00,
2013-09-21 17:37:00,80.3,52.4,29.78,ESE,119,3.0,9.0,38,0.00,,,0.00,WeatherTracker,2013-09-21 23:37:00,
2013-09-21 17:43:00,79.7,52.5,29.78,East,80,1.0,9.0,39,0.00,,,0.00,WeatherTracker,2013-09-21 23:43:00,
2013-09-21 17:48:00,79.4,52.3,29.78,East,88,2.0,11.0,39,0.00,,,0.00,WeatherTracker,2013-09-21 23:48:00,
2013-09-21 17:53:00,79.3,51.5,29.78,SE,130,3.0,11.0,38,0.00,,,0.00,WeatherTracker,2013-09-21 23:53:00,
2013-09-21 17:58:00,79.3,51.5,29.77,East,81,5.0,11.0,38,0.00,,,0.00,WeatherTracker,2013-09-21 23:58:00,
2013-09-21 18:03:00,79.3,51.5,29.78,East,81,6.0,11.0,38,0.00,,,0.00,WeatherTracker,2013-09-22 00:03:00,
2013-09-21 18:08:00,79.0,51.2,29.77,East,97,3.0,8.0,38,0.00,,,0.00,WeatherTracker,2013-09-22 00:08:00,
2013-09-21 18:13:00,79.1,50.6,29.78,ESE,116,3.0,8.0,37,0.00,,,0.00,WeatherTracker,2013-09-22 00:13:00,
2013-09-21 18:18:00,78.5,51.5,29.78,ESE,105,5.0,11.0,39,0.00,,,0.00,WeatherTracker,2013-09-22 00:18:00,
2013-09-21 18:23:00,78.3,51.3,29.78,South,169,4.0,11.0,39,0.00,,,0.00,WeatherTracker,2013-09-22 00:23:00,
2013-09-21 18:28:00,78.2,51.2,29.78,East,83,3.0,10.0,39,0.00,,,0.00,WeatherTracker,2013-09-22 00:28:00,
2013-09-21 18:33:00,78.0,51.0,29.77,East,84,5.0,10.0,39,0.00,,,0.00,WeatherTracker,2013-09-22 00:33:00,
2013-09-21 18:38:00,77.8,50.8,29.78,East,85,7.0,10.0,39,0.00,,,0.00,WeatherTracker,2013-09-22 00:38:00,
2013-09-21 18:43:00,77.3,51.1,29.78,SE,125,5.0,10.0,40,0.00,,,0.00,WeatherTracker,2013-09-22 00:43:00,
2013-09-21 18:48:00,77.0,50.8,29.77,ENE,67,2.0,10.0,40,0.00,,,0.00,WeatherTracker,2013-09-22 00:48:00,
2013-09-21 18:53:00,76.9,51.4,29.78,ESE,103,3.0,8.0,41,0.00,,,0.00,WeatherTracker,2013-09-22 00:53:00,
2013-09-21 18:58:00,76.6,51.1,29.77,ENE,69,4.0,9.0,41,0.00,,,0.00,WeatherTracker,2013-09-22 00:58:00,
2013-09-21 19:03:00,76.4,50.9,29.77,East,98,2.0,9.0,41,0.00,,,0.00,WeatherTracker,2013-09-22 01:03:00,
2013-09-21 19:08:00,76.0,51.2,29.77,East,84,3.0,8.0,42,0.00,,,0.00,WeatherTracker,2013-09-22 01:08:00,
2013-09-21 19:13:00,75.7,51.6,29.77,East,88,2.0,9.0,43,0.00,,,0.00,WeatherTracker,2013-09-22 01:13:00,
2013-09-21 19:18:00,75.5,51.4,29.77,East,101,3.0,9.0,43,0.00,,,0.00,WeatherTracker,2013-09-22 01:18:00,
2013-09-21 19:23:00,75.3,51.2,29.77,East,94,6.0,8.0,43,0.00,,,0.00,WeatherTracker,2013-09-22 01:23:00,
2013-09-21 19:28:00,75.0,51.6,29.77,East,94,5.0,9.0,44,0.00,,,0.00,WeatherTracker,2013-09-22 01:28:00,
2013-09-21 19:33:00,74.9,51.5,29.77,ESE,121,2.0,9.0,44,0.00,,,0.00,WeatherTracker,2013-09-22 01:33:00,
2013-09-21 19:38:00,74.7,51.9,29.78,East,95,1.0,9.0,45,0.00,,,0.00,WeatherTracker,2013-09-22 01:38:00,
2013-09-21 19:43:00,74.5,51.7,29.78,ENE,73,1.0,9.0,45,0.00,,,0.00,WeatherTracker,2013-09-22 01:43:00,
2013-09-21 19:48:00,74.3,52.2,29.78,ESE,109,1.0,7.0,46,0.00,,,0.00,WeatherTracker,2013-09-22 01:48:00,
2013-09-21 19:53:00,74.1,52.0,29.78,East,83,1.0,7.0,46,0.00,,,0.00,WeatherTracker,2013-09-22 01:53:00,
2013-09-21 19:59:00,73.9,51.8,29.78,ENE,78,2.0,7.0,46,0.00,,,0.00,WeatherTracker,2013-09-22 01:59:00,
2013-09-21 20:04:00,73.7,52.2,29.79,East,94,2.0,5.0,47,0.00,,,0.00,WeatherTracker,2013-09-22 02:04:00,
2013-09-21 20:09:00,73.6,52.1,29.79,East,84,1.0,5.0,47,0.00,,,0.00,WeatherTracker,2013-09-22 02:09:00,
2013-09-21 20:14:00,73.5,52.0,29.79,NE,53,0.0,7.0,47,0.00,,,0.00,WeatherTracker,2013-09-22 02:14:00,
2013-09-21 20:19:00,73.2,52.3,29.79,East,94,0.0,7.0,48,0.00,,,0.00,WeatherTracker,2013-09-22 02:19:00,
2013-09-21 20:24:00,73.0,52.1,29.79,ESE,116,1.0,5.0,48,0.00,,,0.00,WeatherTracker,2013-09-22 02:24:00,
2013-09-21 20:29:00,72.8,52.0,29.79,East,84,2.0,8.0,48,0.00,,,0.00,WeatherTracker,2013-09-22 02:29:00,
2013-09-21 20:34:00,72.6,51.8,29.79,East,84,3.0,8.0,48,0.00,,,0.00,WeatherTracker,2013-09-22 02:34:00,
2013-09-21 20:39:00,72.4,51.6,29.79,ENE,65,0.0,6.0,48,0.00,,,0.00,WeatherTracker,2013-09-22 02:39:00,
2013-09-21 20:44:00,72.3,51.5,29.79,East,80,1.0,6.0,48,0.00,,,0.00,WeatherTracker,2013-09-22 02:44:00,
2013-09-21 20:49:00,72.1,51.9,29.80,NNE,15,1.0,5.0,49,0.00,,,0.00,WeatherTracker,2013-09-22 02:49:00,
2013-09-21 20:54:00,71.8,51.6,29.80,NNW,343,3.0,5.0,49,0.00,,,0.00,WeatherTracker,2013-09-22 02:54:00,
2013-09-21 20:59:00,71.6,51.4,29.80,ENE,71,1.0,5.0,49,0.00,,,0.00,WeatherTracker,2013-09-22 02:59:00,
2013-09-21 21:04:00,71.4,51.2,29.80,NE,53,1.0,5.0,49,0.00,,,0.00,WeatherTracker,2013-09-22 03:04:00,
2013-09-21 21:09:00,71.3,51.7,29.80,East,95,2.0,5.0,50,0.00,,,0.00,WeatherTracker,2013-09-22 03:09:00,
2013-09-21 21:14:00,71.1,51.5,29.80,NE,41,1.0,5.0,50,0.00,,,0.00,WeatherTracker,2013-09-22 03:14:00,
2013-09-21 21:19:00,71.0,51.4,29.80,ENE,78,2.0,7.0,50,0.00,,,0.00,WeatherTracker,2013-09-22 03:19:00,
2013-09-21 21:24:00,70.8,51.2,29.80,North,5,5.0,7.0,50,0.00,,,0.00,WeatherTracker,2013-09-22 03:24:00,
2013-09-21 21:29:00,70.6,51.0,29.80,ENE,57,1.0,6.0,50,0.00,,,0.00,WeatherTracker,2013-09-22 03:29:00,
2013-09-21 21:35:00,70.4,51.4,29.80,North,355,4.0,6.0,51,0.00,,,0.00,WeatherTracker,2013-09-22 03:35:00,
2013-09-21 21:40:00,70.3,51.3,29.81,North,5,1.0,6.0,51,0.00,,,0.00,WeatherTracker,2013-09-22 03:40:00,
2013-09-21 21:45:00,70.2,51.2,29.81,NNW,345,1.0,5.0,51,0.00,,,0.00,WeatherTracker,2013-09-22 03:45:00,
2013-09-21 21:50:00,70.0,51.0,29.81,NNE,24,0.0,5.0,51,0.00,,,0.00,WeatherTracker,2013-09-22 03:50:00,
2013-09-21 21:55:00,69.9,51.5,29.81,NNE,13,1.0,5.0,52,0.00,,,0.00,WeatherTracker,2013-09-22 03:55:00,
2013-09-21 22:00:00,69.7,51.3,29.81,North,9,3.0,5.0,52,0.00,,,0.00,WeatherTracker,2013-09-22 04:00:00,
2013-09-21 22:01:00,69.6,51.2,29.81,NNE,13,1.0,5.0,52,0.00,,,0.00,WeatherTracker,2013-09-22 04:01:00,
2013-09-21 22:02:00,69.6,51.7,29.81,NNE,13,2.0,4.0,53,0.00,,,0.00,WeatherTracker,2013-09-22 04:02:00,
2013-09-21 22:07:00,69.4,51.5,29.82,NNE,23,2.0,4.0,53,0.00,,,0.00,WeatherTracker,2013-09-22 04:07:00,
2013-09-21 22:13:00,69.2,51.8,29.82,NNE,17,1.0,4.0,54,0.00,,,0.00,WeatherTracker,2013-09-22 04:13:00,
2013-09-21 22:18:00,68.9,51.6,29.82,North,5,0.0,4.0,54,0.00,,,0.00,WeatherTracker,2013-09-22 04:18:00,
2013-09-21 22:23:00,68.6,51.8,29.82,North,5,1.0,4.0,55,0.00,,,0.00,WeatherTracker,2013-09-22 04:23:00,
2013-09-21 22:28:00,68.3,52.0,29.82,North,5,0.0,4.0,56,0.00,,,0.00,WeatherTracker,2013-09-22 04:28:00,
2013-09-21 22:33:00,68.2,51.9,29.82,North,5,1.0,4.0,56,0.00,,,0.00,WeatherTracker,2013-09-22 04:33:00,
2013-09-21 22:38:00,68.2,51.9,29.82,NW,319,2.0,4.0,56,0.00,,,0.00,WeatherTracker,2013-09-22 04:38:00,
2013-09-21 22:43:00,68.3,52.0,29.82,NNW,334,1.0,4.0,56,0.00,,,0.00,WeatherTracker,2013-09-22 04:43:00,
2013-09-21 22:48:00,68.3,52.5,29.81,NW,322,1.0,4.0,57,0.00,,,0.00,WeatherTracker,2013-09-22 04:48:00,
2013-09-21 22:53:00,68.2,52.8,29.81,NNW,337,3.0,4.0,58,0.00,,,0.00,WeatherTracker,2013-09-22 04:53:00,
2013-09-21 22:58:00,68.2,53.3,29.81,North,10,1.0,4.0,59,0.00,,,0.00,WeatherTracker,2013-09-22 04:58:00,
2013-09-21 23:03:00,68.1,53.2,29.81,NNW,336,2.0,4.0,59,0.00,,,0.00,WeatherTracker,2013-09-22 05:03:00,
2013-09-21 23:08:00,68.0,53.6,29.82,NW,319,2.0,4.0,60,0.00,,,0.00,WeatherTracker,2013-09-22 05:08:00,
2013-09-21 23:13:00,68.0,53.6,29.82,NNW,329,4.0,4.0,60,0.00,,,0.00,WeatherTracker,2013-09-22 05:13:00,
2013-09-21 23:18:00,68.0,54.0,29.82,NW,323,0.0,4.0,61,0.00,,,0.00,WeatherTracker,2013-09-22 05:18:00,
2013-09-21 23:23:00,67.9,53.9,29.82,NNW,333,2.0,4.0,61,0.00,,,0.00,WeatherTracker,2013-09-22 05:23:00,
2013-09-21 23:28:00,67.7,53.8,29.82,NW,325,2.0,4.0,61,0.00,,,0.00,WeatherTracker,2013-09-22 05:28:00,
2013-09-21 23:33:00,67.7,53.8,29.82,NW,324,0.0,4.0,61,0.00,,,0.00,WeatherTracker,2013-09-22 05:33:00,
2013-09-21 23:38:00,67.6,53.7,29.82,NW,324,0.0,4.0,61,0.00,,,0.00,WeatherTracker,2013-09-22 05:38:00,
2013-09-21 23:43:00,67.5,54.0,29.82,NW,324,1.0,4.0,62,0.00,,,0.00,WeatherTracker,2013-09-22 05:43:00,
2013-09-21 23:48:00,67.4,53.9,29.82,NW,324,2.0,4.0,62,0.00,,,0.00,WeatherTracker,2013-09-22 05:48:00,
2013-09-21 23:53:00,67.1,53.6,29.81,NW,324,0.0,3.0,62,0.00,,,0.00,WeatherTracker,2013-09-22 05:53:00,
2013-09-21 23:58:00,66.9,53.4,29.82,NW,324,1.0,3.0,62,0.00,,,0.00,WeatherTracker,2013-09-22 05:58:00,